Location: Praha
(50.0830°N, 14.4670°E)
Time: 16:16:41
(UTC+02:00)

ISS - Pass Details

Date: 13 September 2020
Orbit: 419 x 420 km, 51.6° (Epoch: 24 September)

Event Time Altitude Azimuth Distance (km) Brightness Sun altitude
Exits shadow 05:40:18 10° 222° (SW) 1,482 -1.5 -9.5°
Drops below altitude 10° 05:40:40 10° 216° (SW) 1,497 -1.4 -9.4°
Sets 05:44:26 0° 172° (S) 2,355 0.0 -8.8°
